Location: Poughquag
(41.6090°N, 73.6820°W)
Time: 12:21:30
(UTC-04:00)

Mayak - Visible Passes

Search period start: 18 August 2017 00:00
Search period end: 28 August 2017 00:00
Orbit: 585 x 607 km, 97.6° (Epoch: 17 August)

Date Brightness Start Highest point End Pass type
(mag) Time Alt. Az. Time Alt. Az. Time Alt. Az.
18 Aug 1.5 00:41:38 10° NNE 00:42:30 16° NNE 00:42:30 16° NNE visible
19 Aug 1.6 00:51:25 10° N 00:52:18 16° N 00:52:18 16° N visible
20 Aug 1.6 01:01:14 10° N 01:02:05 16° N 01:02:05 16° N visible
21 Aug 1.6 01:11:06 10° N 01:11:53 15° N 01:11:53 15° N visible
22 Aug 1.7 01:21:01 10° N 01:21:40 14° N 01:21:40 14° N visible
23 Aug 1.8 01:30:58 10° N 01:31:27 13° NNW 01:31:27 13° NNW visible
24 Aug 1.8 01:41:00 10° NNW 01:41:14 11° NNW 01:41:14 11° NNW visible
